Snowfall_Accumulation
0.0 0.0 0.0 0.0 0.0 0.0 0.0 0.0 0.0 0.0 0.0 0.0 0.0 0.0 0.0 0.0 0.0 0.0 0.0 0.0 0.0 0.0 0.0 0.0 0.0 0.0 0.0 0.0 0.0 0.0 0.0 0.0 0.0 0.0 0.0 0.0 0.0 0.0 0.0 0.0 0.0 0.0 0.0 0.0
0.0 0.0 0.0 0.0 0.0 0.0 0.0 0.0 0.0 0.0 0.0 0.0 0.0 0.0 0.0 0.0 0.0 0.0 0.0 0.0 0.0 0.0 0.0 0.0 0.0 0.0 0.0 0.0 0.0 0.0 0.0 0.0 0.0 0.0 0.0 0.0 0.0 0.0 0.0 0.0 0.0 0.0 0.0 0.0
0.0 0.0 0.0 0.0 0.0 0.0 0.0 0.0 0.0 0.0 0.0 0.0 0.0 0.0 0.0 0.0 0.0 0.0 0.0 0.0 0.0 0.0 0.0 0.0 0.0 0.0 0.0 0.0 0.0 0.0 0.0 0.0 0.0 0.0 0.0 0.0 0.0 0.0 0.0 0.0 0.0 0.0 0.0 0.0
0.0 0.0 0.0 0.0 0.0 0.0 0.0 0.0 0.0 0.0 0.0 0.0 0.0 0.0 0.0 0.0 0.0 0.0 0.0 0.0 0.0 0.0 0.0 0.0 0.0 0.0 0.0 0.0 0.0 0.0 0.0 0.0 0.0 0.0 0.0 0.0 0.0 0.0 0.0 0.0 0.0 0.0 0.0 0.0
0.0 0.0 0.0 0.0 0.0 0.0 0.0 0.0 0.0 0.0 0.0 0.0 0.0 0.0 0.0 0.0 0.0 0.0 0.0 0.0 0.0 0.0 0.0 0.0 0.0 0.0 0.0 0.0 0.0 0.0 0.0 0.0 0.0 0.0 0.0 0.0 0.0 0.0 0.0 0.0 0.0 0.0 0.0 0.0
0.0 0.0 0.0 0.0 0.0 0.0 0.0 0.0 0.0 0.0 0.0 0.3 0.0 0.0 0.0 0.0 0.0 0.0 0.0 0.0 0.0 0.0 0.0 0.0 0.0 0.0 0.0 0.0 0.0 0.0 0.0 0.0 0.0 0.0 0.0 0.0 0.0 0.0 0.0 0.0 0.0 0.0 0.0 0.0
0.0 0.0 0.0 0.0 0.0 0.0 0.0 0.0 0.4 0.7 2.0 1.0 0.0 0.2 0.0 0.0 0.0 0.0 0.0 0.0 0.0 0.0 0.0 0.0 0.0 0.0 0.0 0.0 0.0 0.0 0.0 0.0 0.0 0.0 0.0 0.0 0.0 0.0 0.0 0.0 0.0 0.0 0.0 0.0
0.0 0.0 0.0 0.0 0.0 0.0 0.0 0.0 0.7 2.1 1.7 0.7 0.3 0.3 0.0 0.0 0.0 0.0 0.0 0.0 0.0 0.0 0.0 0.0 0.0 0.0 0.0 0.0 0.0 0.0 0.0 0.0 0.0 0.0 0.0 0.0 0.0 0.0 0.0 0.0 0.0 0.0 0.0 0.0
0.0 0.0 0.0 0.0 0.0 0.0 0.0 0.0 0.0 0.4 3.3 2.5 0.0 0.0 0.0 0.0 0.0 0.0 0.0 0.0 0.0 0.0 0.0 0.0 0.0 0.0 0.0 0.0 0.0 0.0 0.0 0.0 0.0 0.0 0.0 0.0 0.0 0.0 0.0 0.0 0.0 0.0 0.0 0.0
0.0 0.1 0.0 0.0 0.0 0.0 0.0 0.0 0.4 0.4 5.7 4.1 0.0 0.0 0.0 0.0 0.0 0.0 0.0 0.0 0.0 0.0 0.0 0.0 0.0 0.0 0.0 0.0 0.0 0.0 0.0 0.0 0.0 0.0 0.0 0.0 0.0 0.0 0.0 0.0 0.0 0.0 0.0 0.0
0.0 0.0 0.0 0.0 0.0 0.0 0.0 0.0 0.0 0.0 0.4 2.8 2.5 0.1 0.0 0.0 0.0 0.0 0.0 0.0 0.0 0.0 0.0 0.0 0.0 0.0 0.0 0.0 0.0 0.0 0.0 0.0 0.0 0.0 0.0 0.0 0.0 0.0 0.0 0.0 0.0 0.0 0.0 0.0
0.0 0.0 2.8 0.0 0.0 0.0 0.0 0.0 0.0 1.4 0.6 0.6 1.3 2.4 0.0 0.0 0.0 0.0 0.0 0.0 0.0 0.0 0.0 0.0 0.0 0.0 0.0 0.0 0.0 0.0 0.0 0.0 0.0 0.0 0.0 0.0 0.0 0.0 0.0 0.0 0.0 0.0 0.0 0.0
0.0 0.6 5.7 2.1 0.0 0.0 0.0 0.0 0.0 0.3 1.8 5.4 10.3 3.4 0.0 0.0 0.0 0.0 0.1 0.0 0.0 0.0 0.0 0.0 0.0 0.0 0.0 0.0 0.0 0.0 0.0 0.0 0.0 0.0 0.0 0.0 0.0 0.0 0.0 0.0 0.0 0.0 0.0 0.0
nan 0.4 1.0 2.4 0.3 0.0 0.6 0.3 0.2 0.4 5.7 2.0 1.9 0.2 0.0 0.0 0.0 0.0 0.0 0.0 0.0 0.0 0.0 0.0 0.0 0.0 0.0 0.0 0.0 0.0 0.0 0.0 0.0 0.0 0.0 0.0 0.0 0.0 0.0 0.0 0.0 0.0 0.0 0.0
0.0 3.1 0.1 0.1 0.0 0.1 0.3 0.2 0.0 0.0 0.0 1.0 0.1 0.3 0.1 0.2 0.2 0.0 0.0 0.0 0.0 0.0 0.0 0.0 0.0 0.0 0.0 0.0 0.0 0.0 0.0 0.0 0.0 0.0 0.0 0.0 0.0 0.0 0.1 0.3 0.4 0.4 0.3 0.0
0.0 4.1 0.6 3.3 0.0 0.1 0.5 0.1 0.1 0.2 0.1 0.1 0.0 0.0 0.0 0.0 0.0 0.0 0.0 0.0 0.0 0.0 0.0 0.0 0.0 0.0 0.0 0.0 0.0 0.0 0.0 0.0 0.0 0.0 0.0 0.0 0.6 1.0 1.2 1.0 0.7 0.5 0.4 0.4
0.4 2.8 8.8 14.0 0.5 0.4 6.9 0.8 0.0 0.0 0.0 0.0 0.3 0.6 0.9 0.3 0.0 0.0 0.0 0.0 0.0 0.0 0.0 0.0 0.0 0.0 0.0 0.0 0.0 0.0 0.0 0.2 1.0 1.5 2.3 2.0 1.6 1.7 1.2 0.9 0.8 0.6 0.6 0.5
0.4 3.6 7.2 17.7 9.3 23.5 2.0 0.0 0.0 0.0 0.5 0.6 1.4 2.2 0.9 0.2 0.0 0.0 0.0 0.0 0.0 0.0 0.0 0.0 0.0 0.0 0.0 0.0 0.0 0.0 0.3 0.7 1.0 1.9 3.0 2.2 1.3 2.6 1.4 1.2 1.2 0.7 0.6 0.8
0.0 0.0 10.2 18.7 17.7 0.8 0.1 0.0 0.0 0.2 0.3 0.4 0.8 0.5 0.2 0.0 0.0 0.0 0.0 0.0 0.0 0.0 0.0 0.0 0.0 0.0 0.0 0.0 0.0 0.4 0.5 0.5 0.6 0.7 1.2 1.2 2.0 2.9 1.5 3.5 1.6 1.2 2.0 1.4
0.0 0.0 0.5 12.0 20.0 15.5 0.2 0.0 0.0 0.0 3.2 2.4 2.6 1.9 0.9 0.2 0.7 0.1 0.0 0.0 0.0 0.0 0.0 0.0 0.0 0.0 0.0 0.0 0.0 0.6 0.7 1.0 0.9 0.7 0.7 0.9 1.9 4.3 3.4 1.9 2.9 3.3 3.1 2.9
5.6 10.0 12.9 13.7 17.8 5.8 1.0 0.6 0.0 6.5 5.0 2.0 0.9 0.9 0.7 0.8 0.2 0.0 0.0 0.0 0.0 0.0 0.0 0.1 0.0 0.0 0.0 0.3 0.7 0.7 0.7 0.9 1.2 1.4 1.4 1.7 2.0 4.5 2.8 3.3 2.7 3.9 4.4 2.3
1.2 8.9 19.5 13.1 13.5 16.0 0.3 0.2 1.4 1.2 0.6 0.9 0.2 0.1 0.1 0.0 0.0 0.0 0.0 0.0 0.0 0.0 0.0 0.0 0.0 0.0 0.0 0.8 1.2 1.1 0.8 1.1 1.7 2.2 2.5 3.1 5.0 4.6 4.7 8.3 5.1 7.0 6.1 6.0
5.0 1.5 8.5 3.7 4.7 0.1 0.1 0.3 0.1 0.2 1.1 0.4 0.2 0.1 0.0 0.1 0.0 0.0 0.0 0.0 0.0 0.0 0.0 0.0 1.5 1.4 0.0 1.7 2.0 2.6 1.7 2.0 2.7 5.2 7.3 7.2 6.4 6.5 6.5 9.5 6.4 8.7 7.1 8.4
0.5 0.0 1.5 2.2 0.0 0.0 0.0 0.0 0.0 0.1 0.1 0.0 0.1 0.1 0.1 0.1 0.0 0.0 0.0 0.1 0.0 0.9 1.3 1.6 2.2 2.7 2.5 2.3 2.8 3.3 2.8 3.0 9.9 10.0 5.4 4.3 5.5 4.1 5.5 7.6 8.8 12.3 9.7 8.0
0.4 0.3 0.9 1.3 0.0 0.0 0.0 0.0 0.0 0.0 0.0 0.0 0.0 0.0 0.0 0.0 0.0 0.0 0.8 1.1 0.7 1.2 1.4 2.0 2.6 2.6 2.4 2.1 2.5 3.7 3.7 4.5 6.8 7.1 4.0 5.6 7.8 8.6 5.1 4.5 7.8 6.6 4.5 9.4
0.0 0.0 0.2 2.1 0.0 0.0 0.0 0.0 0.0 0.0 0.0 0.2 0.3 0.4 0.4 0.5 0.4 0.5 0.9 0.6 0.8 1.2 1.5 2.0 2.4 2.2 2.7 3.4 3.9 5.1 6.7 6.5 6.6 4.2 6.0 5.8 5.8 5.0 4.4 4.4 4.3 nan nan nan
Water_Equivalent
0.00 0.00 0.00 0.00 0.00 0.00 0.00 0.00 0.00 0.00 0.00 0.00 0.00 0.00 0.00 0.00 0.00 0.00 0.00 0.00 0.00 0.00 0.00 0.00 0.00 0.00 0.00 0.00 0.00 0.00 0.00 0.00 0.00 0.00 0.00 0.00 0.00 0.00 0.00 0.00 0.00 0.00 0.00 0.00
0.00 0.00 0.00 0.00 0.00 0.00 0.00 0.00 0.00 0.00 0.00 0.00 0.00 0.00 0.00 0.00 0.00 0.00 0.00 0.00 0.00 0.00 0.00 0.00 0.00 0.00 0.00 0.00 0.00 0.00 0.00 0.00 0.00 0.00 0.00 0.00 0.00 0.00 0.00 0.00 0.00 0.00 0.00 0.00
0.00 0.00 0.00 0.00 0.00 0.00 0.00 0.00 0.00 0.00 0.00 0.00 0.00 0.00 0.00 0.00 0.00 0.00 0.00 0.00 0.00 0.00 0.00 0.00 0.00 0.00 0.00 0.00 0.00 0.00 0.00 0.00 0.00 0.00 0.00 0.00 0.00 0.00 0.00 0.00 0.00 0.00 0.00 0.00
0.00 0.00 0.00 0.00 0.00 0.00 0.00 0.00 0.00 0.00 0.00 0.00 0.00 0.00 0.00 0.00 0.00 0.00 0.00 0.00 0.00 0.00 0.00 0.00 0.00 0.00 0.00 0.00 0.00 0.00 0.00 0.00 0.00 0.00 0.00 0.00 0.00 0.00 0.00 0.00 0.00 0.00 0.00 0.00
0.00 0.00 0.00 0.00 0.00 0.00 0.00 0.00 0.00 0.00 0.00 0.00 0.00 0.00 0.00 0.00 0.00 0.00 0.00 0.00 0.00 0.00 0.00 0.00 0.00 0.00 0.00 0.00 0.00 0.00 0.00 0.00 0.00 0.00 0.00 0.00 0.00 0.00 0.00 0.00 0.00 0.00 0.00 0.00
0.00 0.00 0.00 0.00 0.00 0.00 0.00 0.00 0.00 0.00 0.00 0.04 0.00 0.00 0.00 0.00 0.00 0.00 0.00 0.00 0.00 0.00 0.00 0.00 0.00 0.00 0.00 0.00 0.00 0.00 0.00 0.00 0.00 0.00 0.00 0.00 0.00 0.00 0.00 0.00 0.00 0.00 0.00 0.00
0.00 0.00 0.00 0.00 0.00 0.00 0.00 0.00 0.06 0.12 0.33 0.17 0.00 0.03 0.00 0.00 0.00 0.00 0.00 0.00 0.00 0.00 0.00 0.00 0.00 0.00 0.00 0.00 0.00 0.00 0.00 0.00 0.00 0.00 0.00 0.00 0.00 0.00 0.00 0.00 0.00 0.00 0.00 0.00
0.00 0.00 0.00 0.00 0.00 0.00 0.00 0.00 0.13 0.30 0.27 0.12 0.04 0.05 0.00 0.00 0.00 0.00 0.00 0.00 0.00 0.00 0.00 0.00 0.00 0.00 0.00 0.00 0.00 0.00 0.00 0.00 0.00 0.00 0.00 0.00 0.00 0.00 0.00 0.00 0.00 0.00 0.00 0.00
0.00 0.00 0.00 0.00 0.00 0.00 0.00 0.00 0.00 0.06 0.47 0.40 0.00 0.00 0.00 0.00 0.00 0.00 0.00 0.00 0.00 0.00 0.00 0.00 0.00 0.00 0.00 0.00 0.00 0.00 0.00 0.00 0.00 0.00 0.00 0.00 0.00 0.00 0.00 0.00 0.00 0.00 0.00 0.00
0.00 0.01 0.00 0.00 0.00 0.00 0.00 0.00 0.06 0.06 0.71 0.47 0.00 0.00 0.00 0.00 0.00 0.00 0.00 0.00 0.00 0.00 0.00 0.00 0.00 0.00 0.00 0.00 0.00 0.00 0.00 0.00 0.00 0.00 0.00 0.00 0.00 0.00 0.00 0.00 0.00 0.00 0.00 0.00
0.00 0.00 0.00 0.00 0.00 0.00 0.00 0.00 0.00 0.00 0.07 0.39 0.34 0.02 0.00 0.00 0.00 0.00 0.00 0.00 0.00 0.00 0.00 0.00 0.00 0.00 0.00 0.00 0.00 0.00 0.00 0.00 0.00 0.00 0.00 0.00 0.00 0.00 0.00 0.00 0.00 0.00 0.00 0.00
0.00 0.00 0.49 0.00 0.00 0.00 0.00 0.00 0.00 0.25 0.10 0.10 0.24 0.33 0.00 0.00 0.00 0.00 0.00 0.00 0.00 0.00 0.00 0.00 0.00 0.00 0.00 0.00 0.00 0.00 0.00 0.00 0.00 0.00 0.01 0.00 0.00 0.00 0.00 0.00 0.00 0.00 0.00 0.00
0.00 0.14 0.90 0.33 0.00 0.00 0.00 0.00 0.00 0.06 0.38 0.84 1.26 0.49 0.00 0.00 0.00 0.01 0.01 0.00 0.00 0.00 0.00 0.00 0.00 0.00 0.00 0.00 0.00 0.00 0.00 0.00 0.00 0.00 0.00 0.01 0.01 0.01 0.00 0.00 0.00 0.00 0.00 0.00
nan 0.09 0.20 0.39 0.06 0.00 0.11 0.05 0.03 0.08 0.79 0.33 0.32 0.04 0.00 0.00 0.00 0.00 0.00 0.00 0.00 0.00 0.00 0.00 0.00 0.00 0.00 0.00 0.00 0.00 0.00 0.00 0.00 0.00 0.00 0.00 0.00 0.00 0.00 0.00 0.00 0.00 0.00 0.00
0.00 0.63 0.03 0.02 0.00 0.01 0.05 0.04 0.00 0.00 0.00 0.13 0.02 0.07 0.02 0.03 0.03 0.00 0.00 0.00 0.00 0.00 0.00 0.00 0.00 0.00 0.00 0.00 0.00 0.00 0.00 0.00 0.00 0.00 0.00 0.00 0.00 0.00 0.01 0.04 0.05 0.05 0.05 0.00
0.00 0.70 0.13 0.54 0.01 0.02 0.12 0.03 0.04 0.04 0.03 0.02 0.00 0.00 0.01 0.00 0.00 0.00 0.00 0.00 0.00 0.00 0.00 0.00 0.00 0.00 0.00 0.00 0.00 0.00 0.00 0.00 0.00 0.00 0.00 0.00 0.09 0.13 0.14 0.12 0.09 0.06 0.06 0.06
0.08 0.55 1.35 1.74 0.12 0.09 0.85 0.15 0.00 0.00 0.00 0.00 0.04 0.09 0.15 0.04 0.01 0.00 0.01 0.00 0.00 0.00 0.00 0.00 0.00 0.00 0.00 0.00 0.00 0.00 0.00 0.03 0.13 0.18 0.27 0.23 0.19 0.18 0.14 0.11 0.09 0.07 0.07 0.07
0.08 0.64 1.22 2.12 1.22 2.38 0.32 0.00 0.00 0.01 0.07 0.09 0.20 0.31 0.15 0.04 0.00 0.01 0.01 0.01 0.00 0.00 0.00 0.00 0.00 0.00 0.00 0.00 0.00 0.00 0.04 0.09 0.12 0.21 0.31 0.23 0.14 0.26 0.14 0.12 0.12 0.08 0.07 0.08
0.01 0.01 1.12 2.13 1.98 0.14 0.01 0.00 0.00 0.02 0.04 0.07 0.12 0.08 0.03 0.00 0.00 0.00 0.00 0.00 0.00 0.00 0.00 0.00 0.00 0.00 0.00 0.00 0.00 0.05 0.06 0.06 0.07 0.08 0.12 0.13 0.20 0.29 0.15 0.35 0.16 0.11 0.20 0.14
0.00 0.00 0.07 1.30 2.17 1.61 0.04 0.00 0.00 0.00 0.36 0.34 0.38 0.27 0.15 0.03 0.08 0.02 0.00 0.00 0.00 0.00 0.00 0.00 0.00 0.00 0.00 0.00 0.00 0.06 0.07 0.10 0.09 0.07 0.07 0.09 0.19 0.42 0.33 0.18 0.28 0.33 0.31 0.29
0.72 1.23 1.49 1.66 2.07 0.83 0.22 0.11 0.01 0.71 0.63 0.36 0.15 0.15 0.10 0.12 0.03 0.01 0.00 0.00 0.00 0.01 0.01 0.01 0.00 0.00 0.00 0.03 0.08 0.07 0.07 0.10 0.12 0.14 0.14 0.17 0.19 0.45 0.27 0.32 0.27 0.39 0.43 0.22
0.14 0.99 2.13 1.43 1.48 1.67 0.06 0.03 0.15 0.16 0.11 0.16 0.04 0.01 0.02 0.01 0.00 0.00 0.00 0.00 0.00 0.00 0.00 0.00 0.00 0.00 0.00 0.09 0.13 0.12 0.09 0.11 0.17 0.22 0.24 0.30 0.49 0.45 0.46 0.84 0.50 0.69 0.61 0.60
0.58 0.19 0.92 0.44 0.60 0.02 0.03 0.06 0.02 0.04 0.20 0.08 0.03 0.02 0.01 0.01 0.00 0.00 0.00 0.00 0.00 0.00 0.00 0.00 0.17 0.15 0.00 0.19 0.21 0.26 0.16 0.19 0.26 0.52 0.73 0.72 0.63 0.64 0.65 0.96 0.63 0.87 0.71 0.85
0.07 0.00 0.23 0.29 0.01 0.01 0.01 0.00 0.00 0.01 0.02 0.01 0.01 0.02 0.01 0.01 0.00 0.00 0.00 0.01 0.00 0.10 0.15 0.18 0.24 0.28 0.26 0.24 0.29 0.33 0.28 0.29 1.01 1.01 0.52 0.41 0.53 0.42 0.53 0.75 0.88 1.26 0.97 0.79
0.08 0.08 0.16 0.20 0.00 0.00 0.00 0.00 0.00 0.00 0.00 0.00 0.00 0.00 0.00 0.00 0.00 0.00 0.11 0.15 0.09 0.12 0.14 0.21 0.26 0.26 0.24 0.20 0.23 0.35 0.33 0.41 0.64 0.69 0.37 0.53 0.76 0.85 0.48 0.44 0.76 0.65 0.43 0.93
0.00 0.00 0.03 0.25 0.00 0.00 0.00 0.00 0.00 0.00 0.00 0.04 0.04 0.05 0.06 0.06 0.06 0.07 0.11 0.08 0.10 0.15 0.16 0.20 0.23 0.20 0.22 0.28 0.33 0.45 0.62 0.61 0.63 0.38 0.57 0.56 0.56 0.49 0.43 0.43 0.40 nan nan nan
SL_Ratio
nan nan nan nan nan nan nan nan nan nan nan nan nan nan nan nan nan nan nan nan nan nan nan nan nan nan nan nan nan nan nan nan nan nan nan nan nan nan nan nan nan nan nan nan
nan nan nan nan nan nan nan nan nan nan nan nan nan nan nan nan nan nan nan nan nan nan nan nan nan nan nan nan nan nan nan nan nan nan nan nan nan nan nan nan nan nan nan nan
nan nan nan nan nan nan nan nan nan nan nan nan nan nan nan nan nan nan nan nan nan nan nan nan nan nan nan nan nan nan nan nan nan nan nan nan nan nan nan nan nan nan nan nan
nan nan nan nan nan nan nan nan nan nan nan nan nan nan nan nan nan nan nan nan nan nan nan nan nan nan nan nan nan nan nan nan nan nan nan nan nan nan nan nan nan nan nan nan
nan nan nan nan nan nan nan nan nan nan nan nan nan nan nan nan nan nan nan nan nan nan nan nan nan nan nan nan nan nan nan nan nan nan nan nan nan nan nan nan nan nan nan nan
nan nan nan nan nan nan nan nan nan nan nan 6.0 nan nan nan nan nan nan nan nan nan nan nan nan nan nan nan nan nan nan nan nan nan nan nan nan nan nan nan nan nan nan nan nan
nan nan nan nan nan nan nan nan 5.8 6.0 6.1 5.8 nan 5.8 nan nan nan nan nan nan nan nan nan nan nan nan nan nan nan nan nan nan nan nan nan nan nan nan nan nan nan nan nan nan
nan nan nan nan nan nan nan nan 5.6 7.1 6.4 5.5 6.2 5.9 4.0 nan nan nan nan nan nan nan nan nan nan nan nan nan nan nan nan nan nan nan nan nan nan nan nan nan nan nan nan nan
3.6 4.1 nan nan nan nan nan nan nan 6.1 6.9 6.2 nan nan nan nan nan nan nan nan nan nan nan nan nan nan nan nan nan nan nan nan nan nan nan nan nan nan nan nan nan nan nan nan
nan 5.5 nan nan nan nan nan nan 6.1 6.0 8.0 8.8 nan nan nan nan nan nan nan nan nan nan nan nan nan nan nan nan nan nan nan nan nan nan nan nan nan nan nan nan nan nan nan nan
nan 5.0 nan nan nan nan nan nan nan nan 6.0 7.0 7.3 5.9 nan nan nan nan nan nan nan nan nan nan nan nan nan nan nan 5.0 5.0 5.0 5.0 5.0 nan nan nan nan nan nan nan nan nan nan
nan 5.0 5.7 nan nan nan nan nan nan 5.8 6.3 6.0 5.4 7.2 nan nan nan nan nan nan nan nan 4.0 5.0 nan 5.0 5.0 3.3 5.0 5.0 5.0 5.4 5.0 5.0 5.3 5.8 5.8 5.0 5.0 5.0 5.0 5.0 nan nan
nan 4.5 6.3 6.2 5.6 nan nan nan nan 4.2 4.6 6.4 8.1 7.1 nan nan 5.4 4.8 4.9 nan nan nan nan nan nan nan nan nan nan nan nan 5.0 5.0 4.3 5.4 5.3 6.1 5.9 6.3 6.3 6.0 6.3 7.0 7.5
nan 4.1 4.8 6.1 5.8 nan 5.6 5.3 5.4 5.5 7.2 6.0 6.0 5.8 nan 5.0 4.2 nan nan nan nan nan nan nan nan nan nan nan nan nan nan nan nan nan nan 5.0 5.0 nan 5.0 5.0 nan 5.0 10.0 5.0
nan 5.0 3.9 4.3 nan 5.0 5.5 5.8 6.7 5.0 5.9 7.7 4.9 5.0 4.4 5.9 6.3 5.8 nan nan nan nan nan nan nan nan nan nan nan nan nan nan nan nan nan nan nan nan 6.7 7.2 7.4 7.4 7.4 nan
nan 5.9 4.9 6.1 3.5 3.2 4.5 3.6 3.5 3.9 4.5 5.1 nan nan 5.6 nan nan nan nan nan nan nan nan nan nan nan nan nan nan nan nan nan 7.5 7.0 7.5 7.5 7.6 7.9 8.4 7.8 7.9 7.7 7.7 7.6
5.0 5.1 6.5 8.0 4.5 4.9 8.1 5.6 nan nan nan nan 6.8 6.8 5.9 6.4 6.3 5.0 5.8 5.0 5.0 nan nan nan nan nan nan nan nan nan nan 6.5 8.0 8.3 8.7 8.8 8.5 9.6 9.1 8.7 8.7 8.7 8.5 8.0
5.1 5.6 5.9 8.4 7.6 9.9 6.2 nan nan 5.6 6.9 6.5 6.7 7.1 6.3 6.4 6.7 5.0 5.0 4.8 nan nan nan nan nan nan nan nan nan nan 6.6 7.6 8.3 9.0 9.7 9.8 9.4 9.9 9.9 10.0 9.8 9.1 8.7 9.3
4.8 5.0 9.1 8.8 9.0 6.0 5.0 nan 6.0 7.3 7.9 6.4 6.6 6.2 5.8 nan nan nan nan nan nan nan nan nan nan nan nan nan nan 8.0 8.4 8.4 8.6 9.0 9.4 9.5 9.9 9.9 10.1 10.1 10.5 10.7 10.2 10.0
nan nan 6.7 9.2 9.2 9.6 6.9 6.0 nan 5.0 9.0 6.8 6.9 7.0 6.4 5.7 8.8 5.8 nan nan nan nan nan nan nan nan nan nan nan 8.8 10.0 10.0 9.9 9.6 9.7 10.0 10.1 10.1 10.3 10.5 10.3 10.1 10.0 10.0
7.8 8.1 8.6 8.3 8.6 7.0 4.4 5.1 3.1 9.2 7.9 5.4 5.8 6.0 6.4 6.6 5.6 5.0 nan nan nan 5.5 5.4 5.5 5.4 6.0 5.0 8.0 9.1 9.8 9.8 9.9 9.8 10.0 10.2 10.3 10.4 10.1 10.3 10.2 10.1 10.0 10.1 10.3
8.3 9.0 9.1 9.1 9.2 9.6 5.1 5.3 9.6 7.5 5.6 5.4 5.5 5.0 5.3 5.0 5.0 nan nan nan nan nan nan 5.0 5.6 6.0 5.0 8.9 9.3 9.4 9.7 9.9 10.0 10.2 10.3 10.4 10.3 10.2 10.2 9.9 10.2 10.0 10.0 10.1
8.7 7.7 9.3 8.4 7.9 4.4 4.9 4.9 3.9 5.0 5.3 5.1 5.4 5.2 5.0 5.3 5.0 nan nan nan nan nan nan nan 9.0 9.3 8.2 9.1 9.6 9.8 10.6 10.5 10.5 10.1 10.0 10.0 10.2 10.1 10.1 9.9 10.2 10.0 10.0 9.9
6.4 6.7 6.5 7.5 5.2 5.3 4.7 nan nan 4.6 4.7 4.7 5.1 5.5 5.3 5.4 5.3 nan 7.5 7.1 nan 8.7 8.7 8.9 9.2 9.7 9.4 9.4 9.7 9.9 10.2 10.4 9.9 9.9 10.2 10.5 10.4 9.7 10.5 10.1 9.9 9.8 10.0 10.1
5.2 4.3 5.6 6.8 4.2 nan nan nan nan nan 5.0 5.0 5.0 5.0 5.4 5.0 5.9 6.3 7.2 7.4 7.5 9.6 9.7 9.7 9.9 9.9 10.0 10.1 10.8 10.5 11.1 11.1 10.6 10.4 10.9 10.7 10.3 10.1 10.5 10.4 10.2 10.2 10.3 10.1
nan nan 8.1 8.6 nan nan nan nan nan nan 5.0 6.4 6.7 7.2 7.2 7.0 7.1 7.3 7.6 7.4 7.7 8.2 9.2 9.9 10.4 10.8 12.2 12.1 11.9 11.2 10.8 10.6 10.4 11.2 10.6 10.4 10.2 10.3 10.2 10.3 10.6 nan nan nan